{"data":{"norad_id":67169,"intl_designator":"2025-303G","name":"STARLINK-35839","alt_names":[],"object_type":"PAYLOAD","status":"ACTIVE","operator":null,"country":"US","launch_date":"2025-12-17","launch_site_code":"AFETR","launch_vehicle":null,"mission":null,"orbit_class":"UNKNOWN","rcs_meters":null,"size_class":null,"mass_kg":null,"dimensions":null,"purposes":["comms"],"wikipedia_slug":null,"has_3d_model":false,"image_url":null,"decayed_at":null,"tle_current":{"epoch":"2026-05-24T22:49:49.262304Z","epoch_age_seconds":75383,"freshness":"FRESH","line1":"1 67169U 25303G   26144.95126461  .00016304  00000+0  60056-3 0  9996","line2":"2 67169  43.0026 240.4375 0001186 273.1712  86.9004 15.27586320 24394","mean_motion":15.2758632,"eccentricity":0.0001186,"inclination_deg":43.0026,"raan_deg":240.4375,"arg_perigee_deg":273.1712,"mean_anomaly_deg":86.9004,"bstar":0.00060056,"rev_number":2439,"period_min":94.266358708947,"perigee_km":482.21643732472,"apogee_km":483.84390617786,"semimajor_km":6861.1671717513,"source":"CELESTRAK","updated_at":"2026-05-25T13:38:21.480692Z"}}}